�������l�o���
Date,Time,MP-1(��Sv/h),MP-2(��Sv/h),MP-3(��Sv/h),MP-4(��Sv/h),MP-5(��Sv/h),MP-6(��Sv/h),MP-7(��Sv/h),MP-8(��Sv/h),����,����(m/s),���J
2017/06/11,00:00,0.994,1.582,1.057,1.887,1.300,0.534,0.977,0.904,���k��,8.7,��
2017/06/11,00:10,0.990,1.579,1.056,1.886,1.301,0.534,0.976,0.905,���k��,7.4,��
2017/06/11,00:20,0.991,1.583,1.057,1.888,1.299,0.534,0.978,0.904,��,7.4,��
2017/06/11,00:30,0.992,1.580,1.056,1.890,1.300,0.532,0.975,0.906,���k��,9.1,��
2017/06/11,00:40,0.992,1.580,1.057,1.889,1.300,0.533,0.977,0.904,��,7.9,��
2017/06/11,00:50,0.992,1.581,1.059,1.890,1.300,0.535,0.978,0.905,��,6.1,��
2017/06/11,01:00,0.989,1.581,1.058,1.890,1.298,0.535,0.979,0.905,���k��,4.2,��
2017/06/11,01:10,0.990,1.582,1.056,1.887,1.298,0.534,0.978,0.904,���k��,4.3,��
2017/06/11,01:20,0.993,1.582,1.056,1.887,1.298,0.534,0.979,0.906,���k��,4.7,��
2017/06/11,01:30,0.991,1.581,1.057,1.888,1.302,0.534,0.980,0.904,���k��,5.1,��
2017/06/11,01:40,0.993,1.580,1.058,1.890,1.304,0.535,0.979,0.903,���k��,5.6,��
2017/06/11,01:50,0.992,1.578,1.057,1.888,1.301,0.534,0.978,0.903,���k��,5.6,��
2017/06/11,02:00,0.993,1.579,1.058,1.887,1.299,0.535,0.980,0.904,���k��,5.1,��
2017/06/11,02:10,0.991,1.582,1.058,1.888,1.298,0.536,0.979,0.902,���k��,6.5,��
2017/06/11,02:20,0.991,1.580,1.060,1.889,1.301,0.534,0.979,0.903,���k��,6.7,��
2017/06/11,02:30,0.990,1.582,1.059,1.890,1.300,0.535,0.981,0.903,���k��,5.8,��
2017/06/11,02:40,0.994,1.581,1.059,1.890,1.301,0.534,0.980,0.904,���k��,6.2,��
2017/06/11,02:50,0.990,1.581,1.058,1.889,1.303,0.535,0.977,0.904,���k��,7.1,��
2017/06/11,03:00,0.993,1.582,1.058,1.888,1.299,0.534,0.978,0.903,��,3.7,��
2017/06/11,03:10,0.991,1.582,1.058,1.889,1.299,0.535,0.978,0.904,���k��,2.0,��
2017/06/11,03:20,0.994,1.582,1.057,1.890,1.300,0.534,0.977,0.902,���k��,1.9,��
2017/06/11,03:30,0.990,1.583,1.056,1.889,1.298,0.534,0.977,0.904,���k��,2.6,��
2017/06/11,03:40,0.989,1.582,1.058,1.889,1.298,0.535,0.978,0.904,���k��,3.7,��
2017/06/11,03:50,0.992,1.580,1.058,1.888,1.296,0.535,0.977,0.904,���k��,2.5,��
2017/06/11,04:00,0.991,1.581,1.057,1.890,1.300,0.532,0.979,0.905,���k��,3.1,��
2017/06/11,04:10,0.989,1.582,1.057,1.888,1.301,0.535,0.977,0.903,�k��,3.3,��
2017/06/11,04:20,0.989,1.580,1.056,1.890,1.299,0.534,0.978,0.904,���k��,2.8,��
2017/06/11,04:30,0.992,1.580,1.056,1.889,1.300,0.534,0.979,0.904,���k��,2.9,��
2017/06/11,04:40,0.990,1.582,1.058,1.887,1.298,0.534,0.979,0.905,���k��,2.0,��
2017/06/11,04:50,0.992,1.585,1.059,1.889,1.298,0.534,0.979,0.903,���k��,3.4,��
2017/06/11,05:00,0.990,1.581,1.056,1.891,1.299,0.535,0.977,0.904,���k��,3.5,��
2017/06/11,05:10,0.991,1.582,1.056,1.891,1.302,0.534,0.979,0.903,��,2.0,��
2017/06/11,05:20,0.990,1.584,1.058,1.890,1.298,0.535,0.978,0.902,��,1.9,��
2017/06/11,05:30,0.992,1.582,1.059,1.891,1.303,0.534,0.980,0.904,���쐼,2.9,��
2017/06/11,05:40,0.992,1.583,1.058,1.892,1.301,0.535,0.976,0.903,���쐼,3.5,��
2017/06/11,05:50,0.992,1.584,1.058,1.892,1.299,0.534,0.978,0.904,�쐼,3.5,��
2017/06/11,06:00,0.991,1.584,1.059,1.891,1.300,0.535,0.979,0.903,�쐼,2.9,��
2017/06/11,06:10,0.992,1.583,1.059,1.889,1.301,0.535,0.978,0.905,���쐼,3.2,��
2017/06/11,06:20,0.994,1.582,1.059,1.891,1.302,0.535,0.979,0.905,���쐼,4.1,��
2017/06/11,06:30,0.994,1.585,1.060,1.891,1.303,0.535,0.979,0.904,��,4.6,��
2017/06/11,06:40,0.991,1.585,1.059,1.891,1.300,0.535,0.981,0.903,��,6.2,��
2017/06/11,06:50,0.993,1.580,1.060,1.895,1.302,0.534,0.981,0.904,��,6.7,��
2017/06/11,07:00,0.995,1.582,1.063,1.895,1.302,0.535,0.979,0.905,��,6.0,��
2017/06/11,07:10,0.994,1.586,1.061,1.894,1.300,0.534,0.982,0.907,���쐼,5.3,��
2017/06/11,07:20,0.993,1.583,1.062,1.895,1.301,0.533,0.980,0.906,��,6.5,��
2017/06/11,07:30,0.994,1.584,1.062,1.894,1.302,0.532,0.980,0.904,��,6.7,��
2017/06/11,07:40,0.995,1.584,1.065,1.896,1.301,0.534,0.980,0.905,��,8.8,��
2017/06/11,07:50,0.994,1.585,1.062,1.897,1.302,0.535,0.978,0.904,��,9.7,��
2017/06/11,08:00,0.997,1.589,1.064,1.897,1.304,0.533,0.978,0.905,��,6.0,��
2017/06/11,08:10,0.997,1.587,1.063,1.899,1.305,0.533,0.978,0.900,��,5.1,��
2017/06/11,08:20,0.998,1.589,1.063,1.900,1.304,0.535,0.978,0.904,���k��,5.8,��
2017/06/11,08:30,0.998,1.591,1.062,1.898,1.304,0.535,0.979,0.904,��,7.3,��
2017/06/11,08:40,0.998,1.590,1.061,1.899,1.308,0.534,0.979,0.903,��,5.5,��
2017/06/11,08:50,0.997,1.591,1.063,1.900,1.306,0.536,0.979,0.902,��,6.1,��
2017/06/11,09:00,0.995,1.587,1.061,1.901,1.306,0.536,0.982,0.903,��,4.9,��
2017/06/11,09:10,0.998,1.593,1.064,1.905,1.307,0.536,0.982,0.903,��,6.2,��
2017/06/11,09:20,0.999,1.592,1.065,1.902,1.307,0.536,0.981,0.903,��,7.4,��
2017/06/11,09:30,1.002,1.593,1.064,1.903,1.308,0.537,0.981,0.903,���k��,5.5,��
2017/06/11,09:40,1.001,1.594,1.065,1.904,1.308,0.537,0.982,0.905,���k��,4.6,��
2017/06/11,09:50,1.003,1.595,1.067,1.905,1.310,0.536,0.980,0.904,��,6.6,��
2017/06/11,10:00,1.004,1.597,1.064,1.903,1.310,0.536,0.983,0.905,�k��,6.7,��
2017/06/11,10:10,1.002,1.597,1.067,1.905,1.311,0.538,0.982,0.905,���k��,5.0,��
2017/06/11,10:20,1.005,1.600,1.068,1.907,1.311,0.536,0.983,0.904,��,7.8,��
2017/06/11,10:30,1.006,1.598,1.068,1.907,1.312,0.539,0.983,0.904,���k��,10.8,��
2017/06/11,10:40,1.006,1.601,1.068,1.905,1.314,0.538,0.982,0.904,���k��,7.5,��
2017/06/11,10:50,1.010,1.600,1.071,1.907,1.315,0.539,0.983,0.905,���k��,7.1,��
2017/06/11,11:00,1.010,1.603,1.069,1.907,1.317,0.540,0.985,0.906,�k��,6.7,��
2017/06/11,11:10,1.010,1.602,1.071,1.904,1.315,0.540,0.984,0.908,���k��,5.3,��
2017/06/11,11:20,1.010,1.605,1.072,1.906,1.317,0.540,0.985,0.908,�k��,4.4,��
2017/06/11,11:30,1.011,1.604,1.070,1.906,1.318,0.539,0.985,0.907,���k��,4.4,��
2017/06/11,11:40,1.012,1.604,1.073,1.909,1.320,0.540,0.985,0.908,�k��,4.4,��
2017/06/11,11:50,1.009,1.608,1.074,1.911,1.322,0.540,0.986,0.907,�k��,2.2,��
2017/06/11,12:00,1.011,1.607,1.071,1.907,1.323,0.541,0.986,0.908,�k�k��,3.9,��
2017/06/11,12:10,1.010,1.607,1.075,1.909,1.323,0.540,0.984,0.907,�k��,3.9,��
2017/06/11,12:20,1.011,1.607,1.074,1.907,1.320,0.540,0.984,0.906,���k��,4.5,��
2017/06/11,12:30,1.009,1.610,1.074,1.907,1.322,0.539,0.985,0.905,��,3.3,��
2017/06/11,12:40,1.012,1.607,1.073,1.909,1.322,0.538,0.983,0.906,��,3.7,��
2017/06/11,12:50,1.011,1.608,1.074,1.909,1.321,0.537,0.984,0.906,���쓌,3.7,��
2017/06/11,13:00,1.012,1.612,1.076,1.909,1.322,0.539,0.986,0.905,���쓌,4.5,��
2017/06/11,13:10,1.012,1.612,1.073,1.911,1.326,0.539,0.984,0.904,���쓌,4.9,��
2017/06/11,13:20,1.012,1.613,1.073,1.910,1.324,0.539,0.983,0.905,���쓌,4.6,��
2017/06/11,13:30,1.010,1.613,1.071,1.911,1.327,0.540,0.984,0.906,���쓌,5.2,��
2017/06/11,13:40,1.014,1.613,1.074,1.912,1.326,0.539,0.986,0.905,���쓌,5.6,��
2017/06/11,13:50,1.015,1.613,1.078,1.908,1.324,0.540,0.984,0.906,�쓌,5.3,��
2017/06/11,14:00,1.012,1.613,1.073,1.909,1.325,0.539,0.986,0.907,��쓌,7.8,��
2017/06/11,14:10,1.014,1.614,1.076,1.911,1.328,0.540,0.985,0.905,��쓌,8.3,��
2017/06/11,14:20,1.012,1.616,1.075,1.911,1.327,0.539,0.984,0.907,��쓌,9.7,��
2017/06/11,14:30,1.018,1.615,1.077,1.913,1.331,0.539,0.984,0.906,��쓌,7.9,��
2017/06/11,14:40,1.016,1.614,1.074,1.912,1.328,0.540,0.986,0.907,��쓌,7.8,��
2017/06/11,14:50,1.015,1.617,1.077,1.915,1.331,0.540,0.986,0.907,��쓌,8.1,��
2017/06/11,15:00,1.017,1.617,1.077,1.916,1.330,0.539,0.984,0.907,��쓌,7.8,��
2017/06/11,15:10,1.015,1.617,1.077,1.914,1.328,0.540,0.984,0.909,��쓌,8.2,��
2017/06/11,15:20,1.019,1.617,1.077,1.916,1.332,0.540,0.984,0.907,��쓌,7.0,��
2017/06/11,15:30,1.018,1.618,1.077,1.914,1.329,0.540,0.984,0.907,��쓌,7.9,��
2017/06/11,15:40,1.017,1.621,1.077,1.918,1.331,0.539,0.984,0.908,��쓌,7.0,��
2017/06/11,15:50,1.018,1.618,1.073,1.913,1.331,0.540,0.986,0.906,��쓌,6.5,��
2017/06/11,16:00,1.018,1.619,1.077,1.916,1.330,0.541,0.987,0.906,��쓌,6.5,��
2017/06/11,16:10,1.017,1.617,1.078,1.918,1.330,0.540,0.985,0.907,��쓌,5.0,��
2017/06/11,16:20,1.015,1.620,1.076,1.918,1.331,0.542,0.985,0.906,��쓌,6.1,��
2017/06/11,16:30,1.014,1.620,1.078,1.918,1.333,0.540,0.986,0.906,��쓌,6.0,��
2017/06/11,16:40,1.018,1.618,1.079,1.918,1.332,0.541,0.984,0.906,��쓌,5.5,��
2017/06/11,16:50,1.016,1.621,1.078,1.918,1.332,0.540,0.984,0.906,��쓌,5.2,��
2017/06/11,17:00,1.018,1.622,1.077,1.917,1.331,0.540,0.985,0.908,��쓌,4.7,��
2017/06/11,17:10,1.015,1.621,1.080,1.917,1.332,0.539,0.986,0.906,��쓌,4.4,��
2017/06/11,17:20,1.016,1.625,1.078,1.920,1.331,0.540,0.985,0.907,��쓌,5.4,��
2017/06/11,17:30,1.016,1.622,1.078,1.917,1.333,0.540,0.983,0.907,��쓌,4.2,��
2017/06/11,17:40,1.015,1.623,1.080,1.919,1.330,0.538,0.984,0.907,��쓌,4.0,��
2017/06/11,17:50,1.016,1.622,1.078,1.919,1.333,0.540,0.983,0.909,��,4.5,��
2017/06/11,18:00,1.015,1.624,1.076,1.918,1.334,0.540,0.986,0.910,��,5.2,��
2017/06/11,18:10,1.013,1.626,1.077,1.918,1.334,0.541,0.986,0.910,��,5.1,��
2017/06/11,18:20,1.017,1.625,1.079,1.918,1.333,0.540,0.985,0.911,��,4.6,��
2017/06/11,18:30,1.017,1.625,1.077,1.917,1.329,0.540,0.984,0.909,��,3.9,��
2017/06/11,18:40,1.014,1.626,1.076,1.916,1.330,0.541,0.981,0.909,��,3.7,��
2017/06/11,18:50,1.015,1.625,1.080,1.917,1.331,0.539,0.984,0.909,��,3.1,��
2017/06/11,19:00,1.015,1.625,1.078,1.916,1.332,0.541,0.983,0.910,��쓌,2.6,��
2017/06/11,19:10,1.017,1.626,1.079,1.917,1.332,0.541,0.984,0.909,��쓌,2.0,��
2017/06/11,19:20,1.016,1.622,1.080,1.919,1.334,0.542,0.985,0.911,��,2.9,��
2017/06/11,19:30,1.016,1.626,1.079,1.918,1.333,0.541,0.986,0.909,��,3.3,��
2017/06/11,19:40,1.017,1.623,1.080,1.919,1.334,0.542,0.985,0.908,��,1.4,��
2017/06/11,19:50,1.018,1.622,1.080,1.920,1.334,0.539,0.985,0.909,��쐼,1.7,��
2017/06/11,20:00,1.019,1.623,1.082,1.920,1.335,0.540,0.986,0.911,��쐼,2.0,��
2017/06/11,20:10,1.018,1.622,1.080,1.920,1.335,0.540,0.988,0.908,�쐼,1.7,��
2017/06/11,20:20,1.019,1.622,1.079,1.919,1.332,0.541,0.985,0.907,��쐼,1.1,��
2017/06/11,20:30,1.018,1.622,1.078,1.919,1.334,0.542,0.987,0.909,��쐼,0.9,��
2017/06/11,20:40,1.018,1.624,1.078,1.921,1.334,0.540,0.985,0.908,��쐼,1.1,��
2017/06/11,20:50,1.018,1.624,1.081,1.919,1.335,0.541,0.985,0.910,���쐼,1.2,��
2017/06/11,21:00,1.017,1.623,1.078,1.917,1.332,0.541,0.986,0.908,�쐼,0.6,��
2017/06/11,21:10,1.017,1.622,1.080,1.917,1.334,0.542,0.985,0.909,���k��,0.8,��
2017/06/11,21:20,1.015,1.622,1.079,1.921,1.330,0.541,0.984,0.907,�k��,1.2,��
2017/06/11,21:30,1.017,1.620,1.080,1.920,1.334,0.541,0.985,0.909,�k,1.2,��
2017/06/11,21:40,1.015,1.622,1.080,1.919,1.334,0.539,0.985,0.908,�k�k��,1.7,��
2017/06/11,21:50,1.017,1.620,1.079,1.916,1.331,0.540,0.986,0.908,�k�k��,1.5,��
2017/06/11,22:00,1.016,1.617,1.080,1.920,1.332,0.540,0.983,0.908,�k�k��,0.6,��
2017/06/11,22:10,1.017,1.619,1.079,1.915,1.332,0.540,0.986,0.909,�k��,2.3,��
2017/06/11,22:20,1.016,1.619,1.081,1.920,1.334,0.540,0.985,0.908,�k��,4.4,��
2017/06/11,22:30,1.015,1.621,1.081,1.918,1.336,0.540,0.985,0.908,�k�k��,4.8,��
2017/06/11,22:40,1.018,1.621,1.081,1.920,1.331,0.541,0.986,0.909,�k�k��,5.5,��
2017/06/11,22:50,1.017,1.621,1.079,1.919,1.333,0.540,0.985,0.908,�k�k��,6.0,��
2017/06/11,23:00,1.016,1.617,1.079,1.920,1.332,0.540,0.985,0.907,�k�k��,6.7,��
2017/06/11,23:10,1.017,1.619,1.079,1.918,1.332,0.539,0.985,0.909,�k��,5.3,��
2017/06/11,23:20,1.018,1.616,1.079,1.920,1.331,0.540,0.988,0.909,�k��,5.4,��
2017/06/11,23:30,1.015,1.619,1.079,1.918,1.336,0.540,0.987,0.909,�k,5.1,��
2017/06/11,23:40,1.015,1.619,1.083,1.920,1.333,0.541,0.986,0.909,�k,4.1,��
2017/06/11,23:50,1.016,1.620,1.080,1.923,1.333,0.540,0.984,0.907,�k,3.6,��
